Probability
0 0 0 0 0 0 0 0 3 3 0 6 10 10 10 10 10 13 19 23 26 35 42 45 45 45 42 52 58 55 58 52 52 58 58 52 45 45 42 39 32 42 45 42
0 0 0 0 0 0 0 3 3 3 3 3 10 10 6 10 13 16 13 23 26 29 32 35 45 48 45 48 52 55 52 45 55 58 58 52 45 32 35 39 35 35 35 45
0 0 0 0 0 0 0 0 3 0 0 0 3 3 3 3 6 13 13 6 13 26 26 32 42 42 45 52 48 48 55 55 58 55 42 42 39 39 32 32 32 32 35 39
0 0 0 0 0 0 0 0 0 0 0 0 0 3 3 6 6 16 16 16 13 23 26 26 32 45 48 48 48 42 55 61 61 55 42 39 39 32 29 42 39 39 42 32
0 0 0 0 0 0 0 0 0 0 0 0 0 0 3 3 6 10 16 6 16 19 26 29 29 39 45 45 42 48 52 61 58 48 42 42 39 32 29 32 39 45 42 35
0 0 0 0 0 0 0 0 0 0 0 0 0 0 3 0 3 3 13 10 13 3 23 23 26 26 32 42 39 42 52 52 58 48 42 42 45 39 39 39 39 39 39 39
0 0 0 0 0 0 0 0 0 0 0 0 0 0 0 3 3 6 10 10 10 19 10 23 19 19 29 35 42 42 45 45 45 52 52 48 45 48 48 48 45 35 29 26
0 0 0 0 0 0 0 0 0 0 0 0 0 0 3 3 6 13 10 13 10 10 10 23 19 23 19 29 39 48 52 55 45 45 45 45 52 52 45 52 35 39 29 26
0 0 0 0 0 0 0 0 0 0 0 0 0 0 3 6 6 10 10 6 10 13 19 26 29 26 23 29 39 52 52 61 55 42 52 52 52 48 45 48 48 42 48 32
0 0 0 0 0 0 0 0 0 0 0 0 0 0 3 3 3 6 6 6 13 16 19 23 26 26 26 29 35 45 52 45 52 45 39 42 45 45 48 48 45 45 48 45
0 0 0 0 0 0 0 0 0 0 0 0 0 0 3 3 3 6 10 10 16 16 16 19 23 26 26 32 32 45 45 48 45 42 45 45 45 48 45 42 42 42 45 39
0 0 0 0 0 0 0 0 0 0 0 0 0 0 3 3 6 3 6 6 10 16 23 19 19 29 32 32 32 32 39 42 42 42 45 45 45 45 48 42 42 35 35 32
0 3 3 0 0 0 0 0 0 0 3 0 0 0 3 6 3 3 3 3 6 13 13 19 19 23 32 35 35 39 42 42 39 39 39 48 48 45 48 45 35 35 32 32
0 3 3 0 0 3 3 0 0 0 3 3 3 0 3 3 6 3 3 3 3 6 10 16 19 29 23 29 39 39 42 42 42 39 42 45 45 48 45 52 39 35 32 29
3 3 3 0 0 0 0 0 0 0 3 3 3 0 3 6 6 3 3 10 3 6 10 6 16 23 26 29 26 35 39 42 42 35 35 39 42 42 48 45 42 39 35 16
3 3 3 3 0 0 0 0 0 0 3 3 0 0 6 6 3 3 0 10 6 10 10 6 13 16 23 26 29 32 35 39 39 39 35 35 35 39 39 39 39 35 32 23
3 3 3 3 3 0 3 0 0 3 6 6 6 6 6 6 3 6 6 3 6 6 6 13 16 19 23 29 32 42 42 35 45 39 35 42 42 35 39 32 29 29 26 26
3 6 3 3 3 0 0 0 3 3 0 3 3 0 3 6 6 6 6 3 3 3 10 16 16 19 23 26 35 39 35 35 32 39 39 35 45 45 35 35 32 35 35 29
3 10 3 3 0 0 0 6 6 10 0 3 3 3 3 6 6 6 0 3 6 6 16 16 16 19 23 26 29 35 39 39 39 39 35 35 35 29 29 29 32 35 39 35
3 6 3 0 0 0 3 3 3 6 3 3 3 3 3 3 10 6 3 6 6 13 23 19 16 19 19 26 29 26 32 35 35 35 35 35 32 29 23 32 39 39 39 45
3 3 3 0 0 0 0 3 3 3 6 3 3 3 3 3 6 3 10 6 6 16 16 13 16 23 23 29 29 26 32 35 35 35 32 35 32 32 26 35 35 35 35 35
3 0 3 3 0 0 0 0 0 6 6 3 6 3 3 3 10 10 10 10 13 10 13 16 19 26 26 29 29 29 32 29 32 32 29 29 29 23 23 32 35 35 32 32
0 0 3 0 0 3 0 3 3 3 3 3 3 3 3 3 10 10 10 10 13 13 13 19 19 19 26 29 29 29 26 26 29 32 29 32 32 35 32 26 32 32 29 23
0 0 0 0 0 0 0 0 0 0 3 3 0 3 3 3 3 6 10 13 13 13 13 16 19 19 26 26 26 26 29 29 32 32 35 35 32 32 26 26 23 19 16 16
0 3 0 0 0 0 0 0 0 0 0 0 0 0 0 3 3 3 6 6 6 13 13 10 10 13 19 19 23 26 26 29 29 32 26 29 26 26 23 19 23 23 16 19
0 3 0 0 0 0 3 0 0 0 0 0 0 0 3 3 3 3 3 3 10 6 10 6 6 10 16 23 23 23 26 26 26 26 26 26 26 19 16 13 13 3 0 0
Height
5856 5858 5858 5859 5859 5859 5859 5859 5858 5858 5856 5856 5856 5855 5855 5854 5853 5853 5852 5852 5851 5850 5849 5848 5847 5847 5846 5846 5845 5845 5845 5846 5846 5846 5847 5847 5848 5849 5849 5850 5851 5851 5852 5853
5855 5856 5856 5855 5856 5856 5856 5856 5856 5855 5854 5853 5853 5853 5852 5851 5850 5850 5849 5848 5848 5847 5846 5845 5844 5844 5843 5843 5843 5842 5842 5842 5843 5843 5844 5845 5845 5846 5847 5847 5848 5849 5849 5850
5852 5854 5852 5853 5853 5853 5853 5853 5853 5852 5851 5850 5850 5850 5849 5848 5847 5847 5846 5845 5844 5844 5843 5842 5841 5841 5840 5840 5840 5839 5839 5839 5840 5840 5841 5841 5843 5843 5844 5844 5845 5846 5846 5847
5849 5849 5849 5850 5850 5850 5850 5850 5850 5849 5849 5848 5848 5848 5847 5845 5844 5843 5842 5842 5841 5840 5840 5839 5838 5838 5838 5837 5837 5836 5836 5836 5836 5836 5837 5838 5839 5840 5841 5841 5842 5843 5843 5844
5846 5846 5846 5847 5847 5847 5847 5847 5846 5846 5845 5845 5845 5845 5845 5842 5841 5840 5839 5839 5838 5837 5836 5836 5835 5835 5834 5834 5833 5833 5833 5833 5833 5833 5834 5835 5836 5837 5838 5838 5839 5840 5840 5841
5842 5842 5843 5843 5843 5843 5843 5843 5843 5842 5843 5843 5842 5842 5841 5839 5838 5837 5836 5835 5834 5833 5833 5832 5831 5831 5830 5830 5830 5830 5830 5831 5831 5831 5831 5832 5833 5834 5835 5835 5836 5836 5837 5838
5839 5839 5839 5839 5839 5839 5840 5841 5841 5841 5841 5841 5839 5838 5837 5836 5834 5834 5832 5831 5831 5830 5829 5829 5828 5828 5827 5826 5826 5827 5827 5827 5828 5828 5828 5829 5829 5830 5831 5832 5832 5833 5834 5835
5836 5837 5836 5835 5836 5836 5836 5837 5838 5839 5838 5837 5835 5834 5834 5832 5831 5830 5829 5828 5827 5827 5826 5826 5825 5824 5824 5823 5823 5823 5824 5824 5825 5825 5825 5826 5826 5827 5828 5828 5829 5830 5831 5832
5831 5833 5832 5831 5832 5832 5832 5832 5834 5833 5832 5832 5832 5831 5829 5828 5827 5826 5825 5824 5824 5823 5823 5822 5821 5821 5820 5820 5820 5820 5820 5821 5821 5821 5822 5822 5823 5824 5824 5825 5825 5826 5827 5828
5826 5827 5827 5827 5827 5827 5828 5828 5828 5828 5828 5828 5828 5827 5826 5824 5823 5823 5822 5821 5820 5820 5819 5818 5818 5817 5817 5816 5816 5816 5816 5817 5817 5817 5818 5819 5819 5820 5821 5821 5822 5823 5824 5824
5821 5822 5822 5822 5822 5822 5823 5823 5822 5823 5823 5824 5824 5825 5821 5820 5819 5819 5818 5817 5816 5816 5815 5814 5814 5813 5813 5812 5812 5812 5812 5812 5813 5813 5814 5815 5815 5816 5817 5817 5818 5819 5819 5820
5815 5816 5816 5817 5816 5816 5817 5817 5817 5818 5817 5817 5818 5821 5815 5815 5815 5814 5813 5813 5812 5811 5811 5810 5809 5809 5808 5808 5807 5807 5807 5807 5808 5809 5810 5810 5811 5812 5812 5813 5814 5814 5815 5816
5809 5810 5811 5811 5812 5811 5810 5811 5811 5812 5812 5812 5813 5815 5809 5809 5809 5809 5808 5807 5807 5806 5806 5805 5804 5803 5803 5802 5802 5802 5802 5802 5803 5804 5805 5806 5806 5807 5808 5809 5809 5810 5811 5812
5802 5803 5805 5807 5806 5805 5804 5804 5805 5805 5805 5806 5806 5806 5804 5804 5803 5803 5802 5801 5801 5800 5800 5799 5798 5798 5797 5797 5797 5797 5797 5797 5798 5799 5800 5800 5801 5802 5803 5804 5805 5806 5807 5808
5794 5796 5797 5798 5798 5798 5798 5798 5798 5798 5799 5799 5799 5799 5798 5798 5797 5797 5796 5795 5795 5794 5794 5793 5792 5792 5792 5791 5791 5791 5792 5792 5793 5793 5794 5795 5796 5797 5798 5799 5800 5801 5802 5803
5787 5788 5789 5790 5791 5790 5790 5791 5791 5791 5792 5792 5792 5792 5791 5791 5790 5790 5790 5789 5789 5788 5788 5787 5786 5786 5786 5786 5785 5786 5786 5787 5787 5788 5789 5790 5790 5791 5792 5793 5795 5796 5797 5798
5779 5781 5782 5782 5783 5782 5783 5784 5784 5784 5784 5785 5785 5785 5784 5784 5784 5784 5784 5783 5783 5782 5782 5781 5780 5780 5780 5780 5780 5780 5780 5781 5781 5782 5783 5784 5785 5786 5786 5788 5789 5790 5791 5792
5772 5772 5773 5774 5775 5775 5777 5776 5776 5777 5777 5777 5777 5777 5777 5777 5777 5777 5776 5777 5776 5776 5775 5775 5774 5774 5774 5773 5773 5773 5774 5775 5775 5777 5777 5778 5779 5780 5780 5782 5783 5784 5785 5786
5763 5764 5764 5766 5766 5766 5767 5768 5769 5769 5769 5769 5769 5769 5769 5769 5770 5770 5770 5769 5769 5769 5769 5768 5768 5767 5767 5766 5766 5767 5767 5768 5769 5771 5771 5772 5773 5774 5775 5776 5777 5778 5779 5780
5754 5755 5756 5757 5757 5758 5759 5759 5760 5761 5760 5761 5761 5761 5762 5762 5763 5763 5763 5762 5762 5762 5762 5762 5761 5761 5760 5760 5759 5760 5761 5762 5763 5764 5765 5766 5767 5768 5769 5770 5771 5772 5773 5774
5745 5746 5747 5748 5748 5748 5749 5750 5752 5753 5752 5752 5753 5753 5754 5754 5755 5755 5755 5755 5755 5755 5755 5755 5754 5754 5753 5753 5753 5753 5754 5755 5756 5757 5759 5760 5761 5762 5763 5764 5765 5766 5767 5769
5735 5736 5738 5739 5739 5741 5740 5741 5742 5743 5743 5744 5744 5745 5745 5746 5746 5746 5747 5747 5747 5747 5747 5747 5747 5746 5746 5746 5746 5747 5747 5748 5749 5750 5752 5753 5754 5755 5757 5758 5759 5760 5761 5763
5725 5727 5728 5730 5731 5731 5731 5732 5733 5733 5734 5735 5736 5736 5737 5737 5738 5738 5738 5739 5739 5739 5739 5739 5739 5739 5739 5739 5739 5740 5741 5741 5743 5744 5745 5746 5748 5749 5750 5752 5753 5754 5755 5756
5716 5718 5719 5720 5720 5721 5722 5723 5723 5724 5725 5725 5726 5727 5728 5728 5729 5730 5730 5730 5731 5731 5731 5731 5731 5731 5731 5731 5732 5732 5733 5734 5736 5737 5738 5739 5741 5742 5743 5745 5746 5748 5749 5750
5707 5708 5709 5710 5712 5712 5713 5713 5714 5715 5715 5716 5717 5718 5719 5719 5720 5721 5722 5722 5722 5723 5723 5723 5723 5723 5723 5723 5724 5724 5725 5726 5728 5729 5731 5732 5733 5734 5736 5738 5739 5741 5742 5743
5698 5699 5700 5701 5702 5703 5704 5704 5705 5706 5706 5707 5707 5708 5709 5710 5711 5712 5712 5713 5714 5714 5714 5714 5714 5715 5715 5715 5716 5716 5717 5718 5720 5721 5722 5724 5725 5727 5728 5730 5731 5732 5734 5735
Wind_Speed
7 7 7 8 9 9 9 9 10 11 12 12 12 12 12 13 13 13 13 13 13 13 13 13 13 13 13 12 13 12 12 12 12 11 11 11 12 12 12 12 12 13 12 11
8 8 9 9 9 9 9 9 9 10 12 12 12 13 12 13 13 13 13 13 12 13 13 13 13 12 13 13 12 12 12 13 12 12 11 11 11 11 12 11 12 12 12 12
10 9 10 10 10 9 9 9 10 11 12 12 12 11 12 13 13 13 13 13 13 13 13 13 13 13 13 13 13 12 13 13 12 13 12 12 11 11 11 12 12 13 13 12
11 11 11 10 10 10 10 10 10 10 11 12 12 12 12 13 13 13 13 13 13 13 13 13 13 13 13 13 13 12 12 12 13 13 13 13 13 12 12 12 13 13 13 12
12 12 12 12 11 11 10 11 11 11 12 12 12 11 12 13 13 13 13 13 13 13 12 13 13 13 13 13 13 12 12 12 12 12 12 13 13 12 12 12 12 13 13 12
13 13 13 13 13 12 12 12 12 12 11 11 12 12 12 12 12 12 13 13 13 13 12 12 12 13 13 14 14 13 12 12 12 12 12 12 12 12 12 12 12 13 12 12
13 14 14 13 13 13 12 12 11 11 11 12 13 13 12 12 12 12 12 12 12 12 12 11 12 12 13 13 14 13 13 13 12 12 12 12 12 13 13 13 13 13 13 12
14 14 15 14 13 13 13 12 12 12 12 12 13 12 13 12 12 12 12 12 12 12 11 11 12 12 12 13 13 14 14 14 13 13 13 12 13 14 14 13 13 14 14 14
15 16 17 16 15 15 15 14 13 14 14 13 14 14 14 13 12 12 12 12 12 12 12 13 13 13 13 13 14 15 15 15 15 15 15 15 14 14 14 13 13 13 14 14
17 17 17 17 17 17 16 16 15 14 15 15 15 14 14 14 13 13 13 12 12 12 13 13 13 14 14 14 15 15 16 17 17 17 16 16 15 15 14 14 14 14 14 15
18 18 18 18 17 17 17 17 17 16 16 15 14 14 17 16 15 15 15 14 14 14 14 14 14 15 15 15 15 16 17 18 18 18 17 17 16 16 15 15 15 15 15 15
19 19 19 19 19 19 18 18 18 18 17 17 16 16 18 17 16 16 16 16 16 15 15 15 15 16 16 16 16 17 17 18 19 19 18 18 17 17 16 16 16 16 16 15
21 21 20 19 19 20 20 19 19 19 19 18 17 17 20 19 18 17 17 17 18 17 17 17 17 17 18 18 17 17 18 18 19 19 19 19 18 18 18 17 17 17 16 16
23 23 22 20 20 21 21 20 20 19 19 20 19 20 20 20 19 19 19 19 19 19 20 19 18 18 18 18 19 18 19 19 19 20 20 20 20 19 19 18 18 18 18 18
25 24 23 23 23 23 23 22 21 22 21 21 21 21 21 21 20 20 20 20 19 19 20 20 19 19 18 18 19 19 19 20 20 20 20 21 20 20 20 20 20 19 19 19
26 26 25 25 24 24 25 23 23 23 23 23 23 23 21 21 20 21 21 20 20 19 20 20 19 19 19 19 19 19 19 20 20 20 20 21 20 21 21 21 21 21 21 20
27 26 26 26 26 26 26 25 24 24 24 23 23 23 22 21 21 21 21 21 21 20 20 20 20 19 19 18 19 20 20 20 21 21 21 21 21 21 21 22 22 21 21 21
27 27 28 28 29 29 28 27 25 25 25 24 24 25 25 24 22 22 22 22 21 21 20 20 20 20 20 20 20 20 21 21 21 22 22 21 22 22 21 21 21 22 22 22
28 28 29 29 29 30 29 28 27 26 26 26 26 26 26 24 23 23 22 22 22 22 21 21 21 22 21 21 21 21 22 22 21 21 22 23 22 21 21 21 21 22 22 22
28 29 29 29 29 29 30 29 28 28 29 28 27 27 26 25 24 24 23 23 23 23 22 22 22 22 22 22 22 23 23 22 21 21 22 23 23 22 21 21 21 21 21 21
29 29 29 29 29 30 30 29 28 29 30 28 27 27 27 26 26 26 25 24 24 23 23 23 23 23 22 23 22 23 23 22 22 22 22 22 22 23 23 22 22 22 22 21
28 28 28 29 29 30 30 30 30 30 29 28 27 27 27 27 27 27 26 25 24 24 24 24 24 24 23 23 23 23 24 24 23 23 23 23 23 23 23 23 23 22 22 22
27 27 28 29 29 29 29 29 29 29 29 29 28 28 28 28 27 27 26 25 25 26 25 25 24 24 24 24 24 23 24 24 24 24 23 23 24 24 23 23 23 22 22 22
27 27 27 27 27 27 28 28 28 28 29 29 28 28 28 28 27 27 26 26 26 26 26 26 26 25 25 24 24 23 24 24 24 24 24 24 24 24 24 23 24 24 24 24
27 27 27 27 27 28 28 28 28 28 28 27 28 28 28 28 28 28 28 27 27 27 26 26 26 26 26 25 25 25 25 25 25 25 26 25 25 25 25 25 26 25 25 25
27 28 27 28 27 27 27 27 27 27 27 28 28 28 27 28 28 28 28 28 28 27 27 26 25 26 25 25 25 25 25 25 25 25 26 27 26 26 26 27 27 27 27 27
Wind_Direction
253 252 254 257 262 265 269 269 268 268 268 271 274 279 279 273 272 273 276 277 276 277 278 276 275 271 267 266 261 259 257 255 253 254 251 249 248 246 249 251 249 246 244 248
256 258 256 256 263 269 274 274 276 273 275 276 277 277 278 273 273 275 275 275 273 274 274 274 274 273 272 271 269 267 260 255 252 253 249 249 250 250 253 251 248 246 246 248
251 250 254 258 265 269 272 272 272 275 277 281 283 281 278 276 273 275 275 275 274 272 273 274 272 271 273 275 272 268 258 251 251 252 250 249 247 249 253 251 251 250 248 249
250 252 256 259 263 267 269 271 275 277 279 281 281 281 278 280 280 279 277 276 276 279 279 271 268 269 270 274 272 268 263 258 254 253 253 250 247 248 251 251 253 250 250 251
255 257 257 257 261 265 265 270 273 274 277 281 280 278 278 283 281 280 280 281 281 282 284 274 268 268 269 268 267 264 264 261 256 252 250 252 249 248 248 251 253 249 248 248
253 254 255 257 261 265 270 273 274 275 277 279 278 277 278 277 283 284 283 282 285 285 284 279 272 268 269 267 263 259 256 255 254 252 250 250 247 247 248 251 251 249 247 246
254 256 259 261 263 267 272 275 280 280 277 276 278 279 278 281 284 285 283 284 285 284 283 279 277 272 269 268 262 257 253 253 253 252 251 248 245 247 250 253 251 249 248 247
251 253 259 263 265 268 270 269 268 271 272 276 277 276 276 283 284 283 283 283 284 284 283 279 277 275 270 266 262 257 253 253 253 252 251 247 248 249 250 253 253 250 249 251
251 252 256 260 263 263 265 266 268 272 275 279 279 277 278 279 281 281 284 287 286 284 283 283 279 275 272 266 263 258 255 253 253 253 252 252 250 251 252 253 253 251 250 253
253 255 256 259 261 261 262 266 269 274 276 278 279 278 279 282 282 282 283 284 286 284 283 283 282 279 273 269 264 260 256 255 254 253 253 250 249 252 253 253 254 252 250 251
255 257 258 259 261 263 265 266 269 272 272 275 278 276 277 280 278 279 279 281 283 282 281 281 280 278 274 271 267 262 257 255 255 253 250 249 252 254 254 253 252 250 249 251
256 257 257 259 262 262 264 265 266 269 272 273 276 275 276 276 274 275 276 277 277 277 276 277 277 275 272 270 268 263 258 255 254 254 251 253 253 253 252 252 251 249 250 251
259 258 259 262 267 265 264 264 263 266 269 269 272 273 275 275 275 274 274 275 275 276 276 275 273 273 271 268 267 264 259 257 257 256 255 255 254 253 252 251 251 250 251 252
260 258 258 257 260 262 264 264 262 263 267 269 269 270 273 273 275 275 274 275 276 275 276 275 272 270 272 270 267 265 260 257 258 258 257 256 256 253 251 251 250 250 252 253
259 260 260 260 262 263 265 265 264 264 266 269 269 271 272 272 273 273 273 275 276 275 275 275 274 271 272 271 268 264 260 256 256 257 257 257 256 253 251 251 251 253 254 253
260 262 262 261 262 264 265 263 264 265 267 269 270 269 271 271 270 269 270 273 275 275 274 274 271 269 270 271 267 263 260 255 254 255 256 255 255 254 253 253 252 254 253 251
258 260 261 262 264 265 264 264 266 267 266 269 270 269 269 270 270 270 269 270 273 273 273 273 272 271 269 269 266 261 259 257 254 254 255 255 255 257 253 252 251 250 251 251
257 258 260 262 263 264 264 265 266 267 268 268 267 267 268 270 271 270 270 271 270 271 273 273 272 271 268 268 266 261 260 259 257 255 255 256 255 257 254 253 252 251 250 250
257 259 261 263 264 265 264 264 266 267 267 265 265 266 267 269 271 270 269 269 270 271 272 273 273 272 270 268 264 261 260 259 257 256 255 256 257 258 256 253 252 251 249 250
255 258 260 262 263 263 264 264 264 266 267 265 265 266 267 270 270 270 268 268 269 270 271 272 272 269 268 267 263 259 260 258 256 258 256 254 256 257 258 256 252 250 250 252
255 256 257 259 261 261 262 264 263 264 265 265 264 264 266 268 270 270 269 268 267 268 269 271 271 268 266 265 263 260 258 256 256 257 257 254 254 255 255 255 253 250 251 251
254 254 255 257 259 259 262 263 262 263 265 266 264 265 267 269 270 270 268 267 267 267 268 269 271 271 267 264 263 260 258 257 256 257 256 254 253 253 252 252 252 253 252 251
253 253 253 255 256 259 261 263 264 264 264 264 265 266 267 268 269 269 267 265 267 269 267 266 268 270 268 265 262 261 260 258 257 257 257 255 252 251 249 249 250 251 251 252
254 254 254 255 256 259 261 262 263 264 264 264 265 265 266 266 266 266 266 266 269 270 267 265 266 269 270 269 263 261 260 258 256 255 255 254 251 249 248 247 248 250 251 252
255 255 255 256 257 258 260 261 261 263 264 263 263 263 264 264 264 265 265 266 268 269 269 266 264 265 267 268 265 262 260 258 255 254 254 254 252 250 248 247 247 249 250 252
257 257 256 257 258 259 259 259 260 261 263 263 262 263 263 264 264 264 265 265 266 267 267 266 265 264 264 263 263 261 259 258 255 254 253 252 251 250 249 248 248 248 249 251